Theta_e
322 317 309 313 304 299 293 296 296 297 295 296 299 298 293 292 293 297 294 296 300 302 306 311 320 323 324 325 326 328 330 332 334 335 337 338 340 341 342 342 342 342 343 343 344 345 344 345 343
319 315 313 308 298 294 295 296 294 296 298 296 294 295 292 288 295 292 292 297 299 301 305 309 317 320 321 322 322 323 325 326 328 331 332 333 335 337 338 338 338 340 341 342 343 341 342 342 343
310 312 307 303 296 293 296 296 295 296 298 298 292 291 290 288 292 294 294 297 298 299 303 307 314 316 318 319 319 320 320 321 322 324 326 328 329 330 331 331 334 336 338 339 339 339 337 336 337
303 310 307 298 295 294 296 295 295 296 296 297 293 287 289 292 292 295 298 297 296 297 300 305 311 314 315 316 316 317 317 317 318 319 321 322 322 323 325 326 327 328 330 333 333 332 332 332 334
304 305 299 295 296 294 294 296 296 295 293 293 293 287 287 292 294 294 295 296 295 295 297 300 309 311 311 313 314 314 315 315 315 316 317 318 318 318 318 321 321 324 325 325 326 326 327 329 331
300 303 295 293 295 296 296 296 294 293 293 293 292 288 287 293 294 293 295 294 296 296 297 298 303 306 308 310 311 312 312 312 313 313 314 313 313 314 314 317 317 319 320 321 321 322 323 325 325
299 298 294 295 295 295 297 294 292 291 291 290 292 288 288 290 293 294 294 294 295 296 295 296 297 300 304 306 307 308 308 308 309 310 309 309 309 310 311 312 314 316 317 317 317 317 317 318 318
302 301 296 296 297 294 293 290 289 291 289 291 290 287 285 290 294 294 295 293 292 294 294 294 295 296 296 298 304 304 304 304 305 306 305 304 304 305 306 306 309 310 312 312 313 313 312 312 313
304 296 294 294 294 291 291 290 288 289 289 287 287 287 288 292 293 292 292 292 293 294 294 295 295 296 296 296 297 298 299 299 298 298 300 297 296 296 297 301 304 305 306 308 309 309 308 307 307
299 296 296 293 291 289 291 292 289 289 287 286 285 287 290 291 290 290 289 289 291 291 292 293 294 294 295 296 294 293 292 291 291 290 292 293 292 294 294 295 298 299 300 302 304 304 303 299 297
293 296 293 291 293 292 292 290 290 289 288 289 287 286 287 288 288 288 288 290 290 291 292 293 293 293 293 293 292 292 289 289 289 289 290 291 291 290 290 290 290 291 294 291 293 293 294 293 294
289 289 291 292 292 293 290 293 288 289 287 290 290 287 287 287 287 287 287 288 289 289 290 291 292 291 290 290 289 288 288 287 287 288 289 289 289 288 288 288 288 289 289 289 290 291 291 292 293
287 287 289 289 290 288 292 289 288 284 286 286 287 287 286 286 286 287 288 288 288 287 288 289 289 288 288 287 287 286 286 286 286 287 288 288 287 287 287 287 287 287 288 288 289 290 290 291 293
287 288 287 287 287 286 288 286 288 284 285 286 287 285 285 285 285 285 286 287 287 288 286 287 287 287 288 286 286 285 285 286 286 286 287 288 287 286 286 286 286 286 287 287 288 288 288 289 291
287 283 284 283 285 284 284 283 284 283 284 283 283 282 284 284 286 285 286 286 287 286 286 286 286 286 285 285 285 285 285 285 284 285 286 287 287 286 285 285 285 285 286 286 287 287 288 288 291
283 283 279 281 282 283 282 278 284 282 283 282 281 280 283 284 285 284 285 284 285 285 284 285 287 284 284 284 283 284 284 283 283 284 285 286 286 286 285 284 284 285 285 285 285 285 286 286 287
280 275 278 279 281 280 280 278 283 283 282 282 280 281 282 282 282 283 283 283 284 284 284 284 284 284 284 284 284 284 284 284 283 283 283 284 285 285 284 284 284 284 284 283 284 285 284 284 286
277 277 279 278 278 279 277 278 280 283 282 281 280 280 281 280 281 282 283 283 283 283 284 284 285 284 284 284 283 283 283 283 283 283 284 284 284 284 283 283 283 283 283 282 283 282 284 284 284
279 277 276 275 277 275 275 276 277 279 280 279 279 279 280 280 282 282 282 281 281 281 282 283 283 283 283 282 281 280 280 281 281 283 284 284 284 284 283 282 282 283 281 281 282 282 282 283 284
278 277 274 275 277 275 273 276 276 276 278 280 281 280 280 280 280 281 280 280 280 280 281 281 282 282 283 282 281 280 280 280 281 282 283 284 284 284 283 282 282 282 281 281 281 281 281 281 283
274 274 273 274 275 274 272 274 275 277 277 280 281 281 281 281 279 279 279 278 278 278 279 280 281 282 282 282 282 281 281 280 280 280 281 282 283 283 283 282 281 281 281 280 280 280 280 279 281
275 275 276 275 273 271 272 269 272 276 275 277 280 280 281 280 280 280 279 278 278 278 278 280 281 281 282 282 281 280 278 277 278 279 280 281 282 282 282 282 281 280 280 279 280 281 280 280 279
275 276 275 275 272 270 270 269 272 273 275 276 277 279 279 280 280 280 280 281 279 279 278 278 280 280 281 281 281 279 278 278 279 279 279 280 280 281 281 281 280 279 279 279 279 279 279 280 279
277 276 276 274 272 265 269 269 270 273 276 275 277 278 279 278 279 279 280 280 279 278 278 278 279 279 280 280 280 279 278 278 278 278 278 278 278 278 279 280 279 278 279 279 279 278 278 279 279
276 274 268 266 263 267 270 268 272 275 278 278 278 278 279 279 278 278 278 279 279 278 277 278 279 279 279 280 279 279 279 279 278 278 278 278 278 278 278 279 279 278 278 279 279 278 278 278 278
274 273 269 264 266 269 271 269 274 276 277 278 279 279 279 279 279 278 279 280 280 279 278 279 279 279 279 279 279 279 279 279 279 279 278 278 278 278 278 278 279 279 279 278 279 278 278 277 278
273 271 274 265 263 264 269 272 276 278 276 276 278 278 279 280 280 279 279 279 280 280 279 279 279 279 279 279 279 279 279 279 278 278 278 278 278 280 278 278 278 278 279 278 278 278 277 277 277
273 275 270 268 260 260 268 267 271 275 276 277 277 277 278 279 279 280 279 279 279 280 280 280 280 280 279 279 279 279 278 279 279 278 278 278 279 279 278 278 278 278 278 278 277 277 278 277 277
270 269 270 271 268 264 263 269 273 278 279 278 277 278 278 279 279 280 280 280 279 279 279 280 279 279 279 279 279 279 279 279 279 279 279 278 279 279 278 278 278 278 278 278 277 277 277 276 277
270 271 271 268 266 265 266 268 277 279 278 278 278 278 278 278 279 279 279 279 279 279 279 280 280 280 280 280 279 279 279 279 278 278 279 279 279 279 279 279 278 278 278 278 277 276 277 276 276
Wind_Speed
9 8 1 4 3 4 2 1 3 4 4 2 2 7 10 5 3 2 5 4 7 7 7 8 13 13 13 14 15 15 16 15 15 15 16 16 16 15 15 14 12 12 12 9 10 12 11 12 4
5 5 4 2 4 2 4 2 4 3 5 9 7 4 7 3 4 4 1 5 7 7 7 8 12 13 14 15 15 15 15 14 14 14 14 14 15 17 16 16 14 15 13 13 14 12 13 13 12
4 1 4 3 3 3 3 2 4 3 5 4 5 7 4 4 3 4 3 7 7 6 5 7 12 13 14 15 15 15 14 14 13 12 13 14 14 14 15 15 16 15 15 15 15 14 13 12 12
2 4 4 4 2 2 2 5 5 6 4 6 5 8 4 4 2 5 7 7 8 5 4 7 11 14 14 14 15 15 15 14 14 13 13 12 13 14 15 14 13 12 14 14 15 14 13 12 10
3 3 2 1 2 1 2 4 5 3 4 4 2 6 5 2 6 7 8 7 7 6 5 5 11 11 14 14 14 15 15 14 15 13 11 13 12 14 14 13 14 12 13 13 12 13 13 11 10
4 3 3 3 3 2 1 4 4 3 3 3 6 5 4 6 8 5 7 6 6 6 5 5 9 11 12 12 14 15 15 14 14 14 14 14 13 13 14 14 14 13 13 12 13 13 13 12 12
5 4 4 4 6 3 5 2 4 4 3 2 2 5 3 5 7 9 7 8 7 6 6 5 5 7 10 13 14 14 15 15 15 15 14 14 14 14 15 15 16 15 14 13 14 14 13 13 13
4 4 2 2 5 6 3 3 2 5 2 1 3 5 5 7 8 9 7 8 7 4 6 6 5 6 5 6 15 14 15 16 16 16 15 15 15 16 17 16 16 15 14 14 14 14 14 14 14
3 3 3 2 2 2 2 3 2 1 5 4 4 2 1 14 7 6 8 5 6 7 5 6 6 6 5 6 10 12 15 17 16 14 16 11 6 8 11 15 15 16 15 15 14 15 15 13 13
4 3 4 2 1 2 2 2 6 4 3 2 3 3 6 7 5 6 3 2 7 6 6 5 6 6 5 8 8 7 7 6 7 8 9 6 7 8 10 12 16 16 17 17 16 16 15 11 5
2 4 5 1 1 2 4 3 3 7 3 6 7 9 7 5 5 7 6 6 7 7 7 7 7 7 6 6 4 2 3 3 5 9 7 6 6 5 5 5 6 6 12 6 9 8 6 8 5
5 4 2 0 3 1 3 7 3 2 0 4 3 10 6 8 6 7 7 5 5 6 4 4 6 7 6 5 4 3 4 5 5 6 8 6 5 7 6 5 6 6 6 8 7 5 7 8 8
4 3 4 3 5 4 1 2 3 3 2 6 9 9 9 8 6 6 6 6 6 6 4 5 5 6 5 6 4 3 5 5 5 6 8 6 6 6 5 6 6 6 6 6 7 7 7 7 8
3 5 6 2 3 3 2 2 1 3 5 7 7 7 6 8 7 5 5 5 5 5 5 5 6 6 5 4 5 4 4 4 5 5 6 8 6 5 6 6 7 7 6 6 6 6 6 5 5
7 5 2 4 2 0 1 2 6 4 7 8 7 7 7 8 7 7 6 6 7 5 5 6 6 6 6 5 6 4 5 5 5 5 8 8 7 6 6 6 6 6 6 8 6 7 5 6 6
3 5 3 0 3 1 1 6 3 7 8 8 7 7 7 6 6 5 7 8 7 6 6 6 6 6 6 6 5 4 5 4 4 4 4 7 8 7 6 6 7 7 6 6 6 7 5 5 5
4 3 3 1 1 1 2 5 1 8 7 7 8 7 7 6 6 7 8 7 7 6 6 6 6 6 6 6 5 5 6 5 4 4 4 6 7 8 6 6 6 6 6 6 6 7 5 4 4
7 4 3 4 2 1 2 9 5 7 8 9 7 7 8 9 10 8 8 7 7 6 6 6 4 5 5 4 4 4 4 4 4 4 5 6 5 7 6 6 7 6 7 8 7 6 6 4 4
5 4 5 1 1 0 4 7 10 8 7 8 8 9 9 10 5 7 7 8 7 6 7 6 6 4 3 2 3 3 3 3 3 4 5 6 6 6 6 5 6 6 8 7 8 4 7 9 6
3 4 2 0 1 1 3 10 6 3 6 9 10 9 10 6 7 7 8 8 8 8 7 7 6 4 3 3 2 3 3 2 3 3 4 5 6 6 7 5 6 7 5 9 9 8 3 4 8
3 4 4 2 0 0 3 8 5 1 1 2 5 6 6 11 11 9 9 9 7 8 8 8 7 6 4 5 4 3 4 3 2 3 3 4 5 6 6 6 5 5 5 5 6 6 7 4 4
5 1 4 4 3 4 1 5 6 2 1 1 6 8 8 8 7 9 10 8 9 8 7 7 7 7 5 7 4 5 3 3 2 2 1 3 5 6 5 6 6 5 4 6 5 6 5 4 5
4 3 4 3 4 2 1 4 8 1 5 5 5 7 7 8 10 13 14 12 7 7 8 7 7 6 5 5 5 5 4 3 2 2 3 3 4 5 5 5 5 5 4 5 6 6 6 5 4
6 5 6 5 3 3 3 4 6 7 9 5 4 4 3 4 9 7 6 6 7 7 7 7 8 6 6 6 6 7 8 7 4 3 3 2 1 3 4 5 5 5 4 5 4 5 6 5 4
1 5 4 4 4 7 4 2 11 6 5 8 9 7 5 1 7 9 10 10 8 10 9 8 9 8 8 7 7 7 7 7 7 5 4 4 2 1 1 2 3 3 3 4 4 4 5 4 3
5 5 7 9 5 3 3 7 9 6 4 4 6 6 5 5 6 9 11 11 11 11 10 9 8 7 8 8 8 6 7 4 5 6 4 4 4 4 4 3 3 3 3 3 3 2 2 3 3
5 5 3 9 3 5 5 8 9 6 4 4 7 6 7 7 8 10 9 10 10 10 12 13 10 8 8 8 6 6 6 6 5 5 4 4 4 3 5 4 4 3 2 2 2 2 2 2 2
3 3 4 3 5 4 5 6 8 8 12 8 8 9 8 5 5 6 8 10 8 9 10 8 9 11 8 8 7 6 6 6 6 5 6 6 5 4 6 4 4 3 3 2 2 1 0 1 1
2 2 1 3 5 8 3 10 9 14 14 16 11 9 9 8 7 6 6 7 7 6 8 10 9 9 8 8 7 7 7 6 6 6 6 6 4 6 6 5 5 5 5 4 3 3 2 2 3
2 5 6 7 7 2 3 11 2 6 9 12 11 10 7 7 6 4 4 5 7 9 8 11 11 10 11 10 7 8 7 7 7 7 7 6 7 6 6 5 5 5 5 5 5 5 3 4 4
Wind_Direction
325 309 129 29 56 68 257 136 16 42 87 332 14 73 100 49 49 168 255 60 91 58 29 4 14 21 28 30 32 32 33 26 26 25 26 27 24 23 35 34 27 20 19 27 34 38 35 21 354
320 327 47 77 92 96 276 348 117 43 112 134 83 100 51 85 83 119 42 62 79 65 40 16 22 25 30 33 34 35 31 28 26 27 28 30 27 29 33 29 22 20 19 21 27 24 23 18 13
296 177 77 98 107 155 209 155 136 107 73 139 94 44 80 131 96 129 112 98 88 71 44 33 35 33 33 35 35 35 33 34 30 28 30 30 29 28 28 26 19 25 22 22 23 21 16 6 357
23 13 28 93 169 230 197 158 153 153 69 67 114 72 73 318 113 128 99 97 86 88 52 32 44 36 36 37 35 33 30 31 31 32 35 34 32 26 27 28 19 19 17 21 18 9 8 4 7
29 69 62 95 159 95 83 183 165 108 104 26 127 155 112 74 102 111 103 100 96 79 49 27 47 45 39 39 37 36 33 30 30 32 34 36 38 34 25 26 25 22 22 17 16 12 10 11 16
45 94 82 204 199 138 111 166 112 74 121 114 83 108 152 148 121 132 114 100 96 91 65 49 37 42 44 44 39 38 33 32 33 33 37 33 33 36 28 25 29 27 27 25 25 25 21 29 25
115 91 203 183 154 176 166 45 78 110 106 53 16 91 148 180 156 139 128 106 93 87 73 51 43 38 35 45 43 42 38 40 35 37 38 37 39 36 35 25 31 27 28 28 28 27 25 27 29
113 98 238 228 181 201 144 81 30 68 134 68 0 168 197 191 166 134 126 111 102 82 81 50 45 43 51 36 48 43 39 44 41 35 37 38 35 40 36 31 30 29 29 29 29 31 30 31 32
82 74 227 191 162 128 190 112 33 69 98 47 18 59 310 134 143 129 129 123 103 71 62 59 46 43 48 49 49 40 34 38 35 27 26 26 21 28 27 33 31 32 29 31 31 33 31 29 26
104 159 214 174 131 162 105 108 147 135 101 69 63 44 97 121 150 143 127 94 101 75 57 52 52 45 50 59 46 34 30 22 28 21 9 7 22 30 35 23 27 24 24 25 28 30 24 20 0
52 189 160 155 358 345 125 107 150 128 217 198 188 174 157 134 125 103 73 55 64 54 40 31 49 47 51 58 48 40 31 17 24 22 17 8 23 17 22 9 6 3 12 11 8 7 13 4 3
97 36 98 347 6 91 110 142 121 179 117 310 173 144 130 131 130 122 112 113 112 91 69 52 56 71 56 73 56 31 54 35 31 19 17 19 21 21 20 17 8 11 3 5 3 1 0 3 7
97 138 61 75 63 46 37 151 175 167 60 65 95 110 133 134 126 117 124 111 102 92 78 63 68 71 62 61 53 44 46 43 29 25 24 21 23 27 19 15 13 13 4 9 3 6 3 10 11
110 104 124 65 54 34 161 221 119 163 135 105 116 143 154 149 145 118 126 131 119 119 109 91 80 78 76 74 68 60 53 39 33 29 24 27 27 20 20 15 15 15 5 360 2 6 0 6 14
139 89 71 28 10 335 72 260 226 156 146 148 152 150 151 168 160 173 169 155 145 137 131 105 95 91 90 81 75 57 55 53 43 32 27 28 30 24 19 23 20 10 1 359 6 16 14 27 24
92 71 140 15 347 303 124 267 186 154 157 182 178 184 179 187 186 170 154 145 144 138 119 102 106 104 94 86 77 73 57 51 39 29 23 28 28 26 28 29 23 4 11 11 11 15 15 21 27
359 193 190 269 31 323 143 263 74 173 179 201 203 200 198 194 180 176 168 161 157 149 137 128 125 121 113 102 95 79 68 60 47 37 30 25 28 24 31 30 18 8 19 19 12 23 17 17 12
190 198 177 189 214 138 235 263 267 204 189 217 208 206 200 198 205 181 172 160 148 148 140 133 131 129 114 98 89 70 66 54 41 38 39 32 30 30 28 28 25 19 28 25 15 23 22 27 358
152 151 134 246 236 199 236 278 276 242 207 222 219 209 207 212 193 169 166 152 148 153 147 152 152 154 127 117 102 73 79 51 43 43 39 37 31 33 32 31 28 22 35 24 18 7 31 30 5
126 131 120 339 260 155 359 290 281 209 215 198 199 212 211 180 163 172 171 169 170 163 165 162 170 155 141 136 143 135 133 89 89 59 46 43 42 35 53 39 33 28 33 34 28 26 18 34 23
41 154 175 146 115 108 336 316 338 323 195 196 210 203 195 195 180 180 182 185 176 176 176 174 170 158 149 133 108 77 78 67 50 28 39 35 48 43 46 41 39 33 35 36 33 28 38 43 17
156 171 110 106 97 213 42 240 295 270 339 327 207 211 212 197 163 177 182 188 187 194 178 167 161 161 160 152 131 148 159 145 195 149 132 70 59 54 51 48 42 40 32 39 31 33 35 33 36
156 143 109 91 96 36 273 95 260 94 236 223 220 223 229 211 184 180 191 194 187 174 179 173 164 168 164 167 159 152 147 138 141 107 116 91 56 62 60 56 48 43 36 39 43 31 34 36 46
146 83 52 57 70 24 228 144 260 191 202 200 177 170 155 161 196 188 182 160 181 178 174 172 168 181 179 169 166 156 152 151 141 144 130 120 72 43 57 66 64 54 49 47 46 47 46 42 46
95 100 32 4 6 217 329 92 240 228 204 180 188 211 218 210 172 170 172 181 183 188 186 180 175 184 182 179 175 171 165 158 167 163 164 165 162 178 110 90 77 67 52 51 58 58 53 44 56
183 157 158 191 188 210 348 230 253 219 147 143 170 182 168 164 176 185 190 188 192 190 187 187 183 182 181 182 185 181 169 178 171 175 166 174 181 169 170 145 127 114 91 66 58 52 49 45 50
193 205 153 105 32 59 215 283 304 172 180 170 178 175 183 182 176 186 191 194 191 188 192 190 181 188 187 189 183 180 179 174 172 190 172 175 167 180 170 170 160 153 132 111 99 81 51 35 15
160 198 100 353 126 245 273 277 235 209 204 199 196 200 205 202 199 194 199 194 192 194 193 182 186 188 188 186 181 188 189 187 177 176 192 189 189 193 171 186 191 188 190 174 147 136 303 351 315
156 217 30 120 136 161 181 256 216 204 187 187 197 199 198 201 211 208 212 206 193 175 177 187 183 180 186 186 186 183 187 194 194 191 202 195 194 198 194 192 209 209 207 211 206 223 229 258 277
191 216 179 132 224 220 154 271 231 234 196 167 185 193 198 195 204 234 237 213 193 191 181 190 192 189 195 192 186 192 188 187 193 205 210 198 207 203 200 204 218 222 223 217 223 235 242 250 261